Regional Weather Roundup
Issued by NWS

Home | Current Version | Previous Version | Text Only | Print | Product List | Glossary On
Versions: 1 2 3 4 5 6 7 8 9 10 11 12 13 14 15 16 17 18 19 20 21 22 23 24 25 26 27 28 29 30 31 32 33 34 35 36 37 38 39 40 41 42 43 44 45 46 47 48 49 50
000
ASUS45 KABQ 211810
RWRNM
WEATHER ROUNDUP FOR NEW MEXICO
NATIONAL WEATHER SERVICE ALBUQUERQUE NM
1100 AM MST SUN DEC 21 2014

NOTE: "FAIR" MEANS FEW OR NO CLOUDS BELOW 12,000 FEET AGL WITH NO
       SIGNIFICANT WEATHER OR OBSTRUCTIONS TO VISION.

      THIS PRODUCT IS RELEASED AS TWO VERSIONS.  ONE VERSION NEAR
      THE TOP OF THE HOUR CONTAINING PRELIMINARY DATA FROM ALBUQUERQUE
      AND OTHER STATIONS.  A FINAL VERSION WITH ADDITIONAL DATA IS
      ISSUED ABOUT 10 MINUTES AFTER THE HOUR.

NMZ501-503-504-510>518-211900-
NORTHWEST PLATEAU/NORTHCENTRAL MOUNTAINS

CITY           SKY/WX    TMP DP  RH WIND       PRES   REMARKS
FARMINGTON     SUNNY     34  29  82 N5        30.08R WCI  30
6HR MIN TEMP:  27; 6HR MAX TEMP:  35;

LOS ALAMOS     PTSUNNY   33  26  74 NE3       30.01R
SANTA FE       PTSUNNY   41  25  53 N12       29.96F
6HR MIN TEMP:  31; 6HR MAX TEMP:  41;

TAOS           MOSUNNY   36  23  60 SW9       30.00R WCI  29
ANGEL FIRE     FAIR      30  23  75 W14       29.97R WCI  19

$$
NMZ402-403-502-505>509-211900-
WESTCENTRAL MOUNTAINS/SOUTHWEST MOUNTAINS

CITY           SKY/WX    TMP DP  RH WIND       PRES   REMARKS
GALLUP         PTSUNNY   39  28  64 W13       30.09F WCI  31
6HR MIN TEMP:  25; 6HR MAX TEMP:  40;

GRANTS         MOSUNNY   43  26  50 N8        30.02F
SILVER CITY    MOSUNNY   48  28  46 NW18      30.09F

$$
NMZ407-409-411-412-211900-
SOUTHERN DESERTS

CITY           SKY/WX    TMP DP  RH WIND       PRES   REMARKS
LORDSBURG      FAIR      45  34  65 NW6       30.12S
DEMING         MOSUNNY   50  32  50 SW12      30.07F
6HR MIN TEMP:  31; 6HR MAX TEMP:  50;

LAS CRUCES     MOSUNNY   50  32  50 W13       30.08S
HOLLOMAN AFB   MOSUNNY   47  32  56 S5        30.04S
ALAMOGORDO     MOSUNNY   48  30  49 S5        30.06F
T OR C         PTSUNNY   47  26  44 MISG      30.04S
6HR MIN TEMP:  28; 6HR MAX TEMP:  49;


$$
NMZ519>523-211900-
CENTRAL VALLEYS/CENTRAL HIGHLANDS

CITY           SKY/WX    TMP DP  RH WIND       PRES   REMARKS
ALBUQUERQUE    PTSUNNY   42  28  57 CALM      30.02F
6HR MIN TEMP:  28; 6HR MAX TEMP:  42;

DOUBLE EAGLE   PTSUNNY   43  27  52 VRB3      30.00F
MORIARTY ARPT  FAIR      46  24  42 NW30G37   29.94F
6HR MIN TEMP:  32; 6HR MAX TEMP:  47;

CLINES CORNERS MOSUNNY   42  24  49 W36G44    29.87F
6HR MIN TEMP:  28; 6HR MAX TEMP:  42;

BELEN          FAIR      43  27  53 CALM      30.03F
6HR MIN TEMP:  23; 6HR MAX TEMP:  43;

SOCORRO        FAIR      42  25  52 SE3       30.04F
6HR MIN TEMP:  24; 6HR MAX TEMP:  42;


$$
NMZ524>526-539-540-211900-
SOUTHCENTRAL MOUNTAINS

CITY           SKY/WX    TMP DP  RH WIND       PRES   REMARKS
RUIDOSO        MOSUNNY   46  25  42 NW22G36   29.99S

$$
NMZ527>531-211900-
NORTHEAST HIGHLANDS/NORTHEAST PLAINS

CITY           SKY/WX    TMP DP  RH WIND       PRES   REMARKS
LAS VEGAS      SUNNY     47  21  35 SW6       29.82F
6HR MIN TEMP:  20; 6HR MAX TEMP:  47;

RATON          MOSUNNY   40  18  41 CALM      29.80S
6HR MIN TEMP:  18; 6HR MAX TEMP:  40;

CLAYTON        SUNNY     56  20  24 VRB6      29.73F
6HR MIN TEMP:  32; 6HR MAX TEMP:  56;


$$
NMZ532>537-211900-
EASTCENTRAL PLAINS

CITY           SKY/WX    TMP DP  RH WIND       PRES   REMARKS
TUCUMCARI      MOSUNNY   56  24  29 W12       29.78F
6HR MIN TEMP:  25; 6HR MAX TEMP:  56;

CANNON AFB     PTSUNNY   52  25  35 W18G26    29.84F
6HR MIN TEMP:  33; 6HR MAX TEMP:  52;

CLOVIS AIRPORT PTSUNNY   54  27  35 W20       29.82F

$$
NMZ028-029-538-211900-
SOUTHEAST PLAINS

CITY           SKY/WX    TMP DP  RH WIND       PRES   REMARKS
ROSWELL        PTSUNNY   57  28  33 E8        29.91F
6HR MIN TEMP:  27; 6HR MAX TEMP:  59;

ARTESIA        MOSUNNY   63  27  25 W13       29.92F
CARLSBAD       SUNNY     63  26  24 SE9       29.90F
6HR MIN TEMP:  29; 6HR MAX TEMP:  63;

HOBBS          SUNNY     59  27  29 SW17      29.92F


$$


USA.gov is the U.S. government's official web portal to all federal, state and local government web resources and services.